Location: Celina Elementary School
(33.3262°N, 96.7767°W)
Time: 07:35:38
(UTC+00:00)

Cosmos 1933 - Pass Details

Date: 26 November 2021
Orbit: 546 x 561 km, 82.5° (Epoch: 19 January)

Event Time Altitude Azimuth Distance (km) Brightness Sun altitude
Rises 12:30:27 0° 344° (NNW) 2,722 6.5 -8.2°
Reaches altitude 10° 12:32:43 10° 337° (NNW) 1,823 5.6 -7.8°
Maximum altitude 12:36:27 39° 268° (W) 829 3.8 -7.0°
Drops below altitude 10° 12:40:10 10° 199° (SSW) 1,808 6.0 -6.3°
Sets 12:42:24 0° 191° (S) 2,696 7.0 -5.9°
